Temperature
11 11 10 12 12 13 14 13 13 15 16 16 14 14 15 16 16 17 17 18 18 18 18 18 19 19 19 19 20 20 19 18 17 17 16 16 15 14 14 14 13 14 13 13
9 9 12 14 14 14 13 12 12 14 15 15 13 13 14 15 15 16 17 17 17 18 17 18 18 18 18 19 19 19 19 18 17 17 17 16 14 14 14 13 13 13 13 13
10 11 12 12 12 12 12 11 12 12 13 13 12 12 14 16 16 16 16 17 17 17 17 17 17 17 18 18 18 18 18 18 17 16 15 14 13 13 13 13 13 13 13 12
10 12 12 11 11 12 11 13 12 12 10 10 12 10 13 15 16 16 16 17 17 17 17 17 17 17 17 17 18 18 18 17 17 16 15 14 14 14 13 13 13 13 12 12
10 11 11 10 11 12 11 11 11 10 9 8 10 9 11 14 14 16 16 17 17 17 17 17 17 17 17 17 17 17 17 17 16 16 15 14 14 14 13 13 12 12 12 11
11 11 11 10 11 11 11 10 9 9 8 6 8 9 10 13 15 16 16 17 17 17 17 17 17 17 17 17 17 17 17 17 16 15 14 13 13 13 13 12 12 12 11 11
8 9 10 10 10 10 10 8 7 7 7 7 10 11 11 15 16 16 16 16 16 16 16 16 16 16 16 16 16 16 16 16 15 15 13 12 12 12 13 12 12 12 11 11
7 8 9 9 9 9 9 8 7 8 8 10 12 11 13 16 16 17 16 16 16 16 15 15 15 14 15 15 15 15 15 15 15 13 12 11 11 11 11 11 12 12 11 11
8 9 10 10 10 10 8 7 8 7 7 6 8 11 13 15 15 15 15 16 15 15 14 14 14 14 14 14 15 15 15 14 13 12 11 10 11 11 11 11 11 11 11 10
10 9 10 10 10 9 9 9 7 6 5 6 9 11 11 13 13 14 14 14 15 14 14 13 13 12 13 14 14 14 14 13 12 11 10 10 10 10 10 10 10 10 10 10
10 9 9 8 8 8 8 8 7 7 7 6 7 10 14 13 13 13 13 14 14 13 13 12 12 12 12 13 13 13 13 12 11 10 10 10 10 10 10 9 9 10 10 9
10 9 7 8 9 10 9 8 7 6 6 7 7 8 13 13 13 13 13 13 13 13 12 11 11 11 11 12 12 12 12 11 10 10 10 10 10 10 9 8 9 9 9 8
10 8 6 7 8 9 9 9 9 7 6 6 6 8 12 12 12 12 12 12 12 12 11 11 10 10 10 11 11 11 10 10 10 10 9 9 9 8 8 8 8 8 8 8
10 8 6 8 8 8 7 8 9 7 6 7 7 9 10 11 11 11 11 10 10 10 10 10 9 9 10 10 10 9 9 9 9 9 9 8 7 7 7 7 8 8 8 8
9 7 7 7 8 8 7 8 8 7 7 7 7 8 9 10 10 10 10 9 9 9 9 9 9 9 9 8 8 8 8 8 8 7 7 6 6 6 6 6 7 7 7 7
8 6 6 6 8 8 8 8 9 9 8 8 8 8 10 10 10 10 9 8 8 8 8 8 8 8 7 7 7 7 7 6 6 5 5 4 5 5 5 5 6 7 7 6
8 6 6 6 9 8 8 10 10 9 9 9 8 9 10 9 9 8 7 7 7 7 8 8 7 7 6 6 6 6 5 4 3 3 4 4 4 4 4 5 6 6 6 5
8 6 6 6 7 8 11 11 10 9 9 10 9 9 9 9 8 7 6 6 6 7 7 7 6 6 5 5 4 3 3 3 3 3 3 3 4 4 4 5 6 5 4 4
8 8 7 7 7 9 12 12 10 9 9 10 9 9 9 9 8 6 5 5 5 6 6 5 5 4 3 3 2 2 1 1 2 3 3 3 3 4 5 5 5 4 4 3
8 8 7 7 7 9 12 11 11 9 9 10 9 9 9 9 7 5 3 4 4 4 4 3 3 2 1 1 0 1 1 1 2 2 3 3 4 5 5 4 4 3 2 2
7 7 7 7 7 8 12 12 11 10 10 10 9 8 7 6 4 3 3 2 2 2 2 2 1 0 0 0 1 2 3 3 3 3 3 4 4 4 4 3 2 2 1 1
8 8 8 8 7 8 13 12 11 10 11 10 9 8 6 4 3 2 2 2 1 1 1 1 1 0 0 1 3 4 4 3 3 4 4 4 3 3 2 2 1 1 0 -0
10 10 10 9 9 12 13 13 12 11 9 9 8 7 6 4 2 2 2 2 1 1 1 1 1 1 1 2 4 5 4 4 4 4 3 3 2 2 1 1 0 -0 -1 -1
11 12 11 10 11 12 13 11 10 8 7 7 7 7 6 4 3 2 2 2 1 1 2 2 3 4 3 3 4 5 4 4 3 3 2 1 1 0 0 -0 -1 -1 -1 -2
10 11 10 10 11 12 10 9 8 7 6 6 6 6 5 4 3 2 2 2 2 2 2 4 5 5 4 4 4 4 3 3 2 2 1 0 0 -0 -1 -1 -2 -2 -2 -3
10 10 10 10 11 11 10 9 8 7 5 5 5 5 4 3 2 2 1 1 2 2 3 4 5 5 4 4 3 2 1 1 1 1 0 -0 -1 -1 -1 -2 -2 -2 -3 -4
Wind_Speed
6 5 8 11 13 12 10 9 10 10 10 8 11 14 13 13 15 15 13 12 12 12 12 11 10 10 10 10 10 10 12 12 12 12 11 11 8 6 6 6 11 14 15 15
4 9 10 7 6 7 8 9 11 11 9 10 12 17 15 18 20 18 15 13 13 13 13 13 12 11 12 11 9 10 11 12 12 12 10 7 6 6 6 6 7 12 14 15
8 2 6 10 7 6 8 9 10 10 12 9 11 13 13 13 16 16 15 14 13 13 14 13 13 13 12 12 11 9 11 13 13 13 9 9 8 6 4 5 5 6 12 13
10 6 3 5 7 7 7 4 6 7 6 6 6 8 8 8 8 8 11 12 11 11 12 12 13 13 13 13 12 11 11 13 14 15 14 16 11 8 7 6 6 7 9 12
7 3 4 5 6 6 2 7 6 6 7 7 5 8 11 8 11 10 9 10 10 10 12 11 11 12 12 11 12 12 11 12 14 16 16 15 10 7 10 10 11 9 8 9
3 3 2 3 3 4 2 2 5 6 4 7 8 10 11 4 7 4 4 4 5 7 8 7 6 7 9 9 9 11 13 13 15 16 16 16 15 15 17 16 14 10 8 8
5 5 4 2 2 3 5 3 3 4 5 8 9 9 10 6 4 4 5 6 7 8 6 4 5 6 7 9 9 10 13 15 17 17 16 16 15 17 18 17 15 14 11 9
6 6 11 8 8 7 9 6 4 4 5 4 5 9 8 7 6 6 7 7 7 9 6 5 6 7 8 9 9 10 12 14 16 17 15 13 14 15 13 13 13 12 10 9
7 2 10 10 10 5 7 7 4 5 7 6 8 8 9 11 13 11 11 9 7 6 4 5 6 8 10 9 9 11 13 13 15 15 13 13 16 16 15 13 12 11 11 12
5 4 8 7 7 8 6 5 4 4 4 7 9 8 6 6 9 9 5 2 2 1 3 5 6 9 11 10 8 11 13 13 15 15 13 13 15 16 16 14 13 13 14 13
2 3 5 7 9 11 9 5 5 5 5 5 7 6 2 7 7 7 5 3 2 2 3 4 6 9 12 9 6 9 11 13 15 15 15 15 14 16 15 13 13 14 14 14
7 3 5 8 8 9 10 10 10 6 7 7 7 9 5 8 6 6 6 6 4 3 2 3 5 9 10 6 5 8 10 14 16 16 16 15 15 15 14 14 14 14 14 12
8 4 3 4 6 7 6 10 14 11 8 9 12 13 5 7 9 9 9 10 8 5 3 3 4 7 8 4 3 8 13 16 16 16 16 15 15 15 15 15 15 14 14 12
8 5 6 4 1 0 6 10 11 11 11 14 19 25 23 19 15 11 11 13 13 7 5 4 4 6 5 1 7 13 15 15 15 14 15 15 14 14 15 15 14 14 13 12
4 4 6 9 13 13 15 17 16 18 19 19 24 28 30 22 17 12 9 10 9 6 5 4 3 2 3 8 12 14 14 14 14 14 14 14 15 15 15 14 14 14 12 12
5 3 3 6 13 15 18 19 18 17 17 17 23 26 19 14 11 8 6 7 8 7 7 4 3 5 9 10 11 13 13 12 13 14 15 16 16 15 14 14 13 14 13 11
5 3 2 5 8 11 9 7 6 8 10 13 15 15 15 14 9 5 6 9 9 8 6 3 6 10 11 11 11 11 12 13 14 15 17 17 17 15 13 13 14 13 11 10
5 5 2 5 8 4 1 7 6 9 12 12 14 15 14 11 3 5 8 7 7 5 1 8 11 13 12 12 12 13 14 14 15 16 17 16 16 14 12 12 13 11 9 8
6 5 3 3 5 8 6 3 4 5 6 6 9 12 10 4 3 7 11 8 5 7 11 12 13 14 13 13 14 15 15 15 16 16 16 15 13 14 13 12 11 9 8 7
8 6 4 3 4 4 2 3 2 2 5 3 6 9 9 5 3 4 9 11 12 13 13 14 14 15 15 14 15 16 16 16 16 15 14 13 12 13 13 11 10 8 7 6
5 6 7 6 5 7 5 1 1 3 5 6 6 7 6 5 4 5 7 10 12 13 14 14 14 14 14 14 15 16 16 15 15 14 14 13 12 12 12 10 8 8 6 5
8 6 6 5 6 7 3 2 3 4 4 5 4 4 6 7 8 8 9 10 11 12 13 12 13 13 13 13 14 17 16 14 13 13 14 13 11 10 10 9 8 6 5 4
7 6 4 7 8 7 5 3 2 3 4 4 3 6 9 8 7 8 9 9 10 10 10 10 12 14 13 11 11 17 14 13 14 14 14 12 11 9 8 7 7 5 4 4
4 2 2 5 8 8 3 6 6 6 4 4 3 7 7 8 9 9 9 9 9 9 10 10 13 15 14 12 11 13 13 12 14 14 12 10 9 8 7 6 5 5 5 5
4 2 4 6 9 5 5 5 5 5 5 6 7 8 9 10 10 9 9 9 9 10 10 10 12 15 14 12 12 12 11 12 13 12 9 8 7 7 6 6 5 5 5 4
7 7 6 5 2 2 2 4 5 6 6 7 9 9 9 8 9 10 9 8 9 11 11 12 12 14 14 13 12 10 10 10 11 10 8 6 6 5 5 4 3 3 2 1
Wind_Direction
183 199 203 199 206 246 307 318 307 306 320 306 273 271 268 267 265 258 249 246 247 253 259 256 241 238 242 235 209 183 171 169 164 170 180 187 181 150 127 124 131 135 137 134
163 235 230 237 228 234 270 282 283 290 298 304 290 281 272 258 253 249 248 245 244 248 251 252 246 231 230 237 218 188 175 172 170 175 180 171 133 112 100 105 118 135 136 135
201 191 220 228 238 239 252 259 274 292 320 304 289 284 256 250 238 235 236 239 243 248 250 251 249 238 223 225 223 203 186 175 170 162 153 133 109 95 97 111 122 130 134 133
230 221 170 198 217 224 254 287 295 298 301 288 305 296 267 277 282 239 219 217 226 242 248 246 244 246 232 218 217 212 194 174 163 159 163 164 165 158 160 147 139 136 133 131
208 229 205 216 228 227 256 36 353 314 295 289 252 260 272 229 252 249 236 217 217 234 245 244 235 237 238 224 212 207 188 167 160 163 169 171 163 139 134 138 145 143 134 127
246 147 209 233 241 241 242 46 287 264 274 265 218 218 273 222 246 278 340 318 270 261 261 258 256 253 244 234 219 201 179 165 161 168 173 173 166 153 150 154 156 149 139 129
260 231 205 264 212 200 203 189 254 227 229 248 228 225 253 258 277 299 290 286 294 296 300 319 325 296 268 244 223 200 178 165 164 173 178 177 168 156 157 158 158 152 148 143
193 240 199 200 208 184 197 197 221 264 263 281 260 243 253 260 258 246 237 235 254 271 290 323 332 320 291 254 219 192 175 165 167 175 178 176 156 152 155 156 156 153 150 144
190 231 150 180 205 205 176 213 278 324 303 281 251 261 282 270 267 258 239 219 229 258 301 329 329 319 299 265 221 187 173 167 169 172 172 164 149 148 150 150 149 146 142 144
191 193 165 165 174 235 235 186 179 203 264 275 268 251 265 338 352 347 331 213 212 268 338 339 334 319 299 271 224 184 175 170 165 165 160 149 144 142 145 150 150 144 143 142
231 178 166 159 204 202 203 211 201 227 249 267 285 262 321 333 321 318 320 342 355 344 340 336 327 308 296 271 208 175 171 162 156 146 138 139 139 140 144 145 140 138 138 137
199 198 227 217 214 218 202 202 197 218 235 232 266 272 285 292 302 295 294 296 293 288 297 316 312 301 296 272 199 172 160 146 136 132 134 135 136 138 137 134 132 132 132 129
175 187 240 221 212 218 235 228 223 233 257 250 255 268 284 328 330 320 309 304 299 295 314 327 316 298 297 277 165 135 129 125 124 128 131 134 134 134 132 130 130 128 125 122
167 199 220 244 170 149 243 251 244 241 254 260 255 270 282 288 291 287 286 286 288 298 321 323 304 289 289 33 105 110 112 116 120 125 130 132 129 126 125 125 124 122 121 116
163 240 244 259 276 276 265 264 257 249 254 264 274 278 284 291 293 285 270 273 285 293 308 297 268 271 88 90 97 104 109 113 121 127 128 123 118 116 117 118 119 116 113 109
193 241 290 270 261 260 260 259 259 260 259 262 272 279 283 285 287 293 308 312 307 300 294 270 186 121 104 99 100 105 112 119 126 127 121 116 114 114 115 117 114 109 105 104
190 172 292 279 300 299 267 239 245 260 264 269 279 286 302 300 303 315 324 315 304 294 278 193 130 112 106 103 104 106 112 116 117 116 114 112 114 115 115 120 114 110 109 109
177 162 215 286 305 275 226 154 204 256 271 269 277 291 299 295 317 31 2 327 309 305 93 104 100 99 99 100 100 103 105 108 110 110 111 115 119 121 120 115 109 109 109 107
202 194 231 275 290 276 284 167 213 269 284 286 300 312 322 329 74 38 10 8 24 62 83 89 95 100 99 100 105 108 108 109 111 113 117 121 125 122 114 107 104 103 103 100
205 200 222 254 285 276 358 115 132 264 271 352 340 332 337 359 34 20 18 42 62 71 81 90 96 100 101 102 106 109 110 110 111 113 115 115 114 110 106 103 97 93 94 96
184 199 218 235 255 272 293 150 206 302 306 339 346 347 2 48 76 76 61 67 74 80 87 94 100 105 111 115 116 114 113 113 115 114 111 106 102 101 100 97 92 93 93 92
189 196 198 203 228 255 248 309 293 288 318 332 356 44 83 97 95 88 84 86 90 93 97 103 109 112 117 121 121 115 113 114 112 108 103 98 94 96 96 95 91 87 84 74
202 212 204 205 230 271 308 289 329 22 335 344 36 102 120 115 109 103 94 90 93 100 103 104 105 102 99 100 110 112 110 110 108 102 98 93 88 85 90 94 94 85 72 69
240 220 266 276 272 281 350 50 44 38 7 9 81 121 125 126 124 116 111 105 100 97 98 101 102 100 95 93 94 102 106 107 103 100 97 95 94 88 78 74 73 75 65 55
280 269 236 258 272 276 90 60 55 59 58 65 76 97 117 128 127 122 115 111 107 101 95 97 102 103 101 100 96 95 99 103 100 97 95 93 91 95 89 80 68 70 82 80
224 228 232 250 329 25 59 70 77 93 91 95 98 96 103 116 122 117 110 105 104 103 103 102 102 104 102 99 95 91 93 99 103 99 93 90 87 84 84 83 80 96 104 85
Height
1470 1472 1470 1467 1468 1467 1466 1470 1471 1464 1457 1459 1459 1457 1455 1452 1450 1448 1447 1448 1448 1448 1449 1450 1451 1453 1455 1458 1460 1462 1464 1467 1471 1474 1477 1480 1484 1488 1491 1494 1496 1499 1502 1505
1472 1471 1465 1462 1462 1465 1468 1472 1472 1466 1460 1459 1458 1453 1449 1444 1439 1439 1440 1441 1442 1442 1443 1444 1446 1447 1448 1450 1453 1456 1457 1461 1464 1467 1471 1475 1479 1482 1485 1488 1492 1495 1498 1501
1466 1465 1462 1464 1465 1468 1471 1474 1472 1470 1465 1463 1462 1450 1439 1429 1427 1429 1431 1433 1435 1436 1436 1437 1439 1440 1441 1443 1446 1449 1451 1454 1457 1462 1467 1470 1473 1475 1479 1483 1487 1491 1494 1497
1465 1462 1463 1464 1466 1468 1472 1467 1468 1470 1474 1472 1463 1464 1437 1428 1424 1422 1423 1425 1427 1429 1430 1430 1431 1432 1433 1435 1439 1442 1446 1448 1450 1455 1459 1461 1463 1466 1471 1476 1481 1486 1491 1494
1462 1462 1463 1466 1466 1467 1469 1470 1474 1474 1476 1478 1469 1470 1437 1426 1424 1420 1418 1418 1420 1422 1423 1423 1423 1424 1426 1428 1431 1435 1439 1440 1442 1447 1451 1455 1458 1461 1466 1471 1477 1482 1486 1490
1459 1462 1464 1465 1465 1467 1469 1475 1478 1477 1480 1484 1467 1463 1439 1424 1418 1414 1415 1416 1417 1418 1418 1418 1418 1419 1420 1422 1424 1427 1430 1432 1436 1440 1444 1448 1451 1454 1459 1465 1471 1476 1481 1485
1465 1463 1464 1465 1468 1471 1472 1480 1485 1482 1482 1473 1453 1447 1431 1415 1411 1412 1413 1414 1415 1415 1415 1414 1414 1414 1415 1415 1417 1419 1421 1424 1428 1434 1438 1442 1445 1448 1452 1458 1464 1470 1475 1480
1468 1464 1461 1464 1467 1470 1473 1476 1481 1478 1467 1452 1439 1435 1420 1407 1406 1406 1408 1410 1411 1412 1412 1411 1410 1410 1410 1410 1411 1412 1414 1417 1422 1427 1433 1438 1441 1444 1448 1455 1460 1466 1471 1476
1460 1458 1457 1461 1466 1466 1471 1476 1473 1476 1472 1470 1449 1429 1415 1406 1403 1401 1401 1403 1405 1407 1408 1408 1407 1407 1406 1405 1405 1406 1409 1412 1416 1422 1429 1433 1436 1439 1445 1452 1458 1463 1468 1473
1452 1459 1458 1460 1465 1467 1466 1469 1477 1483 1485 1468 1440 1427 1420 1407 1404 1401 1398 1398 1401 1403 1404 1404 1404 1403 1401 1400 1400 1401 1403 1406 1411 1418 1424 1428 1432 1436 1443 1449 1454 1459 1464 1470
1452 1458 1460 1462 1464 1464 1468 1470 1471 1472 1469 1469 1452 1428 1405 1406 1403 1403 1401 1399 1400 1402 1402 1402 1401 1399 1397 1394 1394 1396 1399 1403 1408 1413 1418 1424 1429 1435 1441 1446 1451 1456 1462 1468
1452 1457 1461 1459 1456 1456 1459 1463 1467 1473 1468 1459 1452 1428 1406 1403 1400 1400 1400 1400 1399 1400 1399 1398 1397 1396 1393 1390 1390 1391 1395 1399 1403 1408 1415 1421 1428 1433 1438 1444 1449 1455 1460 1467
1451 1458 1465 1456 1459 1456 1455 1455 1456 1460 1461 1455 1449 1425 1404 1401 1400 1401 1400 1399 1397 1396 1395 1394 1393 1392 1389 1387 1387 1389 1391 1394 1400 1407 1413 1420 1426 1431 1436 1442 1448 1453 1460 1466
1449 1454 1460 1454 1450 1452 1455 1452 1450 1456 1452 1443 1432 1415 1404 1402 1400 1399 1399 1397 1395 1394 1392 1390 1389 1388 1386 1385 1385 1386 1389 1394 1400 1406 1413 1419 1424 1429 1435 1441 1446 1453 1460 1465
1449 1454 1452 1451 1447 1447 1446 1445 1443 1445 1442 1436 1421 1413 1401 1399 1397 1394 1392 1391 1390 1389 1388 1387 1386 1386 1384 1384 1384 1386 1390 1396 1402 1407 1413 1418 1423 1428 1434 1440 1446 1453 1459 1464
1448 1453 1452 1451 1443 1439 1437 1432 1429 1427 1425 1422 1415 1406 1397 1393 1391 1389 1388 1387 1386 1385 1384 1384 1384 1384 1383 1384 1386 1389 1394 1399 1404 1409 1413 1417 1423 1429 1434 1441 1447 1453 1458 1462
1446 1451 1454 1448 1435 1434 1428 1418 1420 1420 1416 1414 1409 1400 1394 1390 1388 1387 1386 1385 1383 1382 1381 1381 1382 1383 1384 1386 1389 1393 1397 1402 1406 1409 1413 1418 1424 1430 1436 1443 1448 1453 1457 1461
1444 1449 1451 1448 1440 1432 1416 1411 1414 1414 1409 1406 1401 1396 1391 1387 1386 1386 1385 1382 1380 1379 1379 1380 1381 1382 1385 1389 1392 1396 1400 1403 1407 1410 1414 1421 1427 1433 1440 1446 1449 1453 1456 1459
1440 1444 1446 1446 1439 1426 1411 1409 1410 1411 1406 1400 1398 1393 1388 1385 1385 1387 1386 1382 1381 1380 1380 1381 1382 1385 1388 1392 1395 1398 1402 1405 1409 1413 1418 1425 1432 1438 1443 1446 1449 1452 1455 1457
1438 1441 1446 1442 1438 1427 1410 1407 1406 1409 1405 1399 1396 1393 1389 1385 1387 1392 1390 1386 1384 1383 1383 1384 1386 1388 1391 1395 1398 1401 1405 1409 1414 1419 1425 1431 1437 1441 1444 1447 1450 1452 1454 1455
1437 1439 1440 1439 1437 1423 1407 1405 1405 1409 1405 1397 1395 1394 1392 1391 1394 1395 1392 1390 1389 1388 1388 1389 1390 1393 1396 1399 1402 1405 1409 1413 1419 1425 1430 1435 1440 1443 1445 1447 1450 1452 1453 1454
1428 1430 1431 1431 1432 1424 1402 1402 1403 1402 1397 1396 1395 1394 1394 1394 1395 1395 1395 1394 1393 1393 1394 1395 1396 1399 1402 1405 1407 1410 1414 1419 1425 1430 1434 1438 1441 1443 1446 1448 1450 1451 1452 1452
1417 1417 1415 1418 1416 1403 1399 1398 1398 1396 1395 1395 1395 1395 1395 1396 1396 1397 1398 1398 1399 1400 1401 1402 1403 1405 1409 1413 1415 1416 1421 1426 1430 1434 1437 1439 1442 1445 1447 1448 1449 1450 1451 1451
1410 1408 1410 1410 1404 1399 1398 1397 1396 1394 1394 1393 1394 1394 1395 1396 1397 1398 1399 1401 1402 1404 1406 1407 1408 1410 1414 1418 1421 1423 1427 1431 1434 1436 1439 1442 1444 1446 1447 1448 1449 1449 1449 1449
1411 1408 1409 1407 1402 1397 1397 1396 1395 1393 1393 1393 1393 1394 1396 1397 1398 1399 1401 1403 1405 1407 1409 1411 1413 1415 1418 1422 1425 1428 1431 1435 1437 1439 1441 1443 1445 1446 1447 1448 1448 1448 1448 1447
1406 1406 1406 1404 1398 1398 1397 1396 1394 1393 1393 1393 1394 1395 1397 1399 1400 1401 1402 1405 1406 1408 1411 1414 1416 1419 1422 1426 1429 1432 1435 1438 1439 1441 1442 1444 1445 1446 1447 1447 1448 1447 1447 1445